This is the latest recevied weather packets stored in our database for station/object KE8ZLU. If no packets are shown the sender has not sent any weather packets the latest 10 day(s).
| Time | Temp. | Humidity | Pressure | Rain* | Wind** | Luminosity | Snow |
|---|---|---|---|---|---|---|---|
| 1777939604 | 20.56° C | 58% | 1000.1 hPa | 0 mm | - | 20 W/m² | - |
| 1777939302 | 21.11° C | 56% | 1000.3 hPa | 0 mm | - | 24 W/m² | - |
| 1777938998 | 21.11° C | 55% | 1000.3 hPa | 0 mm | - | 30 W/m² | - |
| 1777938695 | 22.22° C | 53% | 1000 hPa | 0 mm | - | 51 W/m² | - |
| 1777938392 | 22.22° C | 53% | 1000.2 hPa | 0 mm | - | 51 W/m² | - |
| 1777938090 | 22.22° C | 51% | 1000.2 hPa | 0 mm | - | 57 W/m² | - |
| 1777937785 | 22.22° C | 51% | 999.9 hPa | 0 mm | - | 57 W/m² | - |
| 1777937481 | 22.78° C | 54% | 1000 hPa | 0 mm | - | 75 W/m² | - |
| 1777937179 | 23.33° C | 50% | 1000 hPa | 0 mm | - | 61 W/m² | - |
| 1777936876 | 22.78° C | 49% | 1000.2 hPa | 0 mm | - | 52 W/m² | - |
| 1777936572 | 23.33° C | 49% | 999.9 hPa | 0 mm | - | 70 W/m² | - |
| 1777936269 | 23.33° C | 49% | 1000 hPa | 0 mm | - | 70 W/m² | - |
| 1777935964 | 23.33° C | 48% | 1000.1 hPa | 0 mm | - | 70 W/m² | - |
| 1777935664 | 23.33° C | 49% | 1000 hPa | 0 mm | - | 65 W/m² | - |
| 1777935361 | 23.33° C | 49% | 1000.1 hPa | 0 mm | - | 68 W/m² | - |
| 1777935058 | 23.33° C | 48% | 1000.2 hPa | 0 mm | - | 96 W/m² | - |
| 1777934754 | 23.33° C | 47% | 1000.2 hPa | 0 mm | - | 175 W/m² | - |
| 1777934452 | 23.33° C | 49% | 1000.2 hPa | 0 mm | - | 110 W/m² | - |
| 1777934149 | 23.33° C | 48% | 999.9 hPa | 0 mm | - | 169 W/m² | - |
| 1777933844 | 23.89° C | 49% | 1000.2 hPa | 0 mm | - | 117 W/m² | - |
| 1777933541 | 23.33° C | 48% | 1000 hPa | 0 mm | - | 234 W/m² | - |
| 1777933238 | 23.33° C | 50% | 1000.2 hPa | 0 mm | - | 143 W/m² | - |
| 1777932936 | 22.78° C | 50% | 1000.3 hPa | 0 mm | - | 213 W/m² | - |
| 1777932632 | 23.33° C | 50% | 1000.4 hPa | 0 mm | - | 94 W/m² | - |
| 1777932329 | 23.89° C | 48% | 1000.2 hPa | 0 mm | - | 79 W/m² | - |
* Rain latest hour (hover to see other rain measurements)
** Current wind speed in m/s (hover to see current wind gust speed)